Wind_Speed
10 10 10 11 11 11 11 11 11 12 12 12 12 12 12 12 12 13 13 13 14 14 14 13 13 13 13 14 14 13 12 11 11 10 10 10 10 10 9 9 10 10 10 10
11 11 12 12 12 12 12 12 13 13 13 13 13 13 13 13 13 13 13 14 15 15 15 14 13 13 14 14 14 13 13 12 11 11 10 10 10 10 11 11 11 11 11 11
12 13 13 13 13 13 13 13 14 14 14 14 14 14 14 14 15 14 14 14 14 14 14 14 14 14 14 14 13 13 12 12 12 11 11 11 11 11 11 11 11 11 11 11
13 14 14 14 14 14 13 14 14 14 14 14 15 15 15 15 15 15 15 15 15 14 14 14 15 15 14 14 14 13 13 13 13 13 12 12 12 12 12 11 11 12 12 12
14 15 15 16 15 15 15 15 15 14 15 15 15 16 16 16 16 16 16 15 15 15 15 15 15 15 15 14 14 14 14 15 15 14 13 14 13 13 13 12 12 13 13 13
15 16 16 16 16 16 16 16 16 16 16 16 16 17 17 16 16 16 16 16 16 16 15 16 16 16 16 15 15 15 15 15 16 16 15 15 15 15 14 14 14 14 14 14
17 17 17 17 17 17 17 17 17 17 17 16 17 17 17 16 16 16 16 16 16 16 16 16 16 17 17 17 16 16 16 16 17 17 17 16 16 16 15 15 15 16 16 16
18 18 17 17 17 18 18 18 18 18 18 17 17 18 17 17 17 16 17 17 17 17 17 18 18 18 18 18 17 17 17 17 17 18 18 17 17 17 16 16 16 16 16 16
19 19 18 18 18 19 19 19 19 19 19 19 18 17 17 17 17 17 17 17 18 18 18 18 19 19 19 19 18 18 18 18 19 19 19 19 19 18 17 17 17 17 17 18
19 20 19 19 19 20 20 20 20 20 20 20 19 18 18 17 17 17 17 17 18 19 19 19 20 20 19 19 20 19 19 19 19 20 20 20 20 19 18 18 19 19 19 18
21 21 21 21 21 21 21 21 21 21 21 20 20 19 19 18 18 18 18 18 18 18 19 20 20 21 21 21 21 21 21 21 21 21 21 21 21 20 20 19 19 20 19 19
22 23 23 23 22 22 22 22 21 22 22 22 22 21 20 19 19 19 19 19 19 19 19 20 21 21 21 22 22 22 23 22 22 22 21 22 22 22 21 20 19 20 20 19
23 24 24 24 24 23 23 23 23 23 23 23 23 22 21 21 20 21 21 20 20 21 21 21 21 22 22 23 23 23 23 23 23 22 22 22 22 22 22 21 20 19 20 20
24 25 25 25 25 25 25 25 25 25 25 25 23 23 23 23 22 22 22 22 21 22 22 22 22 22 23 23 23 23 23 23 23 23 23 23 22 23 23 23 21 21 21 21
25 25 25 25 25 25 25 26 26 26 25 26 25 24 24 25 24 23 23 23 23 23 24 24 24 24 24 24 25 24 24 24 24 24 24 24 24 24 24 24 23 22 22 22
26 26 26 26 26 26 26 25 25 26 26 26 27 26 24 25 25 25 25 24 24 24 25 25 25 24 24 25 25 25 25 25 25 26 26 26 26 25 25 25 26 25 25 24
27 27 27 27 26 27 28 26 25 25 26 26 27 25 25 26 27 26 26 26 26 26 26 26 26 26 25 25 26 26 26 26 26 27 27 28 28 27 27 27 27 28 27 27
27 27 28 28 28 28 27 26 26 26 25 25 26 26 26 26 27 28 28 27 26 26 27 27 27 27 27 26 27 28 27 27 27 28 28 29 29 29 29 29 29 29 30 30
27 27 28 28 28 28 27 25 25 26 26 26 26 26 26 27 28 28 29 29 28 27 27 27 27 28 28 29 29 29 29 30 30 30 30 30 31 31 31 31 30 31 31 31
26 26 27 27 27 27 27 26 25 26 26 25 26 25 26 26 27 28 28 29 29 29 29 29 29 29 30 30 30 30 30 31 30 31 31 31 31 32 32 32 32 32 32 32
25 25 26 26 27 28 26 26 25 26 26 25 25 26 27 27 28 28 28 29 30 30 30 31 31 30 31 31 31 31 32 32 32 32 32 32 32 33 33 34 34 34 34 33
25 26 26 26 27 27 26 26 26 27 27 27 26 27 27 27 28 29 29 29 30 30 31 32 32 32 32 32 32 32 33 33 34 33 33 33 33 33 34 34 34 34 34 34
24 26 26 27 27 27 27 27 28 29 29 28 28 27 28 28 29 31 31 31 31 32 32 33 32 32 33 33 34 34 34 34 35 35 34 34 34 33 34 34 34 34 34 34
23 24 26 27 27 27 28 28 28 29 30 30 30 30 30 30 30 31 32 32 32 33 34 34 34 34 34 34 35 35 36 36 37 37 36 36 35 34 34 33 34 34 33 33
23 23 25 26 26 27 27 28 28 29 29 29 29 30 30 30 30 30 31 32 33 34 34 33 34 34 35 35 35 35 35 36 36 35 36 35 35 35 34 34 33 33 34 34
22 23 24 25 25 27 27 27 28 28 28 28 28 28 29 29 30 30 30 31 31 31 32 32 33 33 33 33 33 34 34 34 35 35 35 35 35 35 35 35 35 34 34 34
Wind_Direction
252 254 256 258 259 259 260 260 263 264 262 258 256 255 256 255 255 254 253 251 248 244 241 240 240 242 242 241 242 244 245 249 251 254 254 254 255 255 255 260 263 263 264 267
253 256 257 258 259 259 261 263 264 267 266 260 257 257 258 257 257 255 255 253 250 246 243 241 240 241 242 241 243 244 247 247 249 252 255 257 258 259 261 263 264 266 268 270
254 257 259 260 262 261 261 262 263 265 269 265 262 261 260 258 257 255 253 250 247 245 243 242 242 244 243 242 244 246 246 248 249 252 256 261 261 263 265 266 265 267 269 272
256 258 260 262 263 261 262 262 263 265 268 267 265 263 260 258 256 253 250 248 245 242 241 242 243 244 245 246 249 249 251 253 253 254 256 260 263 265 266 267 268 271 274 276
259 260 261 263 264 262 261 262 263 266 268 266 264 262 260 258 255 251 248 246 244 241 240 241 243 243 244 247 250 252 254 254 252 253 255 259 263 264 265 267 270 274 275 276
261 262 261 262 262 262 263 262 262 264 266 265 262 262 259 258 254 251 248 245 243 240 239 240 242 243 245 248 251 253 254 252 251 252 255 260 262 263 263 266 270 273 275 276
262 263 261 261 262 263 264 264 265 268 268 266 263 261 259 256 252 250 247 244 244 242 240 240 241 243 245 248 252 254 254 253 253 255 257 258 260 263 263 266 268 272 275 276
263 263 263 262 263 266 264 262 261 265 266 265 262 260 259 256 252 251 248 246 246 244 243 242 243 246 246 248 252 254 252 252 253 256 257 258 259 262 265 267 268 271 273 277
264 263 263 264 264 263 262 260 259 261 263 262 260 260 259 256 254 252 250 248 247 245 245 245 245 247 248 249 252 254 251 251 254 257 258 257 259 261 264 267 269 271 274 276
264 264 264 263 262 261 260 260 258 258 261 263 262 258 257 254 254 254 253 251 249 247 246 246 247 248 249 251 251 252 252 252 256 258 258 258 260 261 265 267 269 271 275 276
263 264 265 262 259 261 260 258 257 258 259 261 263 262 257 255 254 254 255 253 251 249 248 247 247 248 249 250 251 251 251 252 255 258 259 259 260 261 264 266 269 272 274 275
263 264 264 264 261 258 257 256 256 257 260 262 262 262 259 258 255 253 252 253 253 252 251 250 250 250 250 250 252 251 251 253 255 257 259 261 260 261 263 266 270 271 270 272
263 263 264 265 262 258 255 255 255 256 259 261 260 261 259 257 255 253 252 252 254 254 253 252 252 252 251 251 253 252 252 254 255 259 261 262 261 261 264 266 269 271 270 272
262 262 262 262 262 261 257 255 255 256 258 259 259 259 258 257 255 254 253 252 253 254 255 254 254 254 254 252 252 252 251 253 255 259 261 262 263 263 264 266 268 270 270 271
262 263 263 262 260 259 259 257 256 257 258 258 258 258 257 256 256 255 254 253 253 254 255 256 256 256 256 254 253 253 251 253 256 258 261 262 263 265 265 266 268 270 270 271
262 265 266 264 262 260 258 256 256 257 257 258 258 257 255 254 254 255 256 255 255 255 255 256 257 257 257 256 254 255 254 255 258 259 261 263 263 263 264 265 266 269 270 271
262 264 265 265 264 262 258 257 258 259 258 258 258 258 256 254 253 254 255 255 255 256 256 256 257 257 257 257 256 256 256 258 260 260 261 263 263 263 264 265 266 268 270 271
262 263 264 265 264 262 263 260 260 260 260 259 259 258 257 256 254 254 254 255 257 256 256 257 256 256 257 258 257 258 258 258 260 262 263 264 263 263 264 266 268 269 270 272
262 262 262 262 263 264 263 262 261 261 261 261 261 260 258 257 256 256 256 258 258 257 258 258 258 257 258 258 258 258 260 260 262 263 264 265 265 264 264 265 267 268 270 272
264 262 261 261 262 264 266 265 264 263 264 263 262 260 259 258 258 257 258 260 261 259 259 258 258 259 260 260 260 259 261 262 263 264 264 265 265 264 265 265 265 267 269 271
264 262 259 260 262 263 264 263 262 263 265 264 262 261 259 259 260 260 259 259 260 260 258 258 258 260 260 260 261 261 262 263 263 265 264 264 264 265 266 266 266 266 268 269
264 262 260 261 262 264 265 263 260 262 263 264 262 261 260 259 259 260 261 262 261 260 259 259 260 260 260 260 260 261 262 263 263 265 265 264 264 265 266 266 266 267 268 269
262 260 260 261 263 265 265 264 263 262 263 263 263 262 262 261 260 260 261 263 262 261 261 262 261 261 261 261 261 262 263 263 264 264 265 264 265 267 267 267 266 267 268 269
264 262 262 263 263 264 264 265 266 264 264 264 263 263 262 262 262 261 262 263 263 262 260 260 260 261 261 262 263 264 264 264 265 263 264 265 266 268 268 268 268 268 269 269
268 268 266 263 263 264 264 266 267 267 266 265 264 264 263 263 262 263 264 263 263 262 260 259 260 261 261 262 263 265 265 265 265 264 264 265 267 268 268 269 269 270 270 270
268 269 267 264 263 265 265 266 267 267 267 266 266 265 265 266 266 265 265 266 265 263 261 260 260 260 260 261 263 264 265 265 265 265 264 265 267 267 268 269 269 270 270 270
Height
5841 5843 5843 5843 5843 5844 5844 5844 5844 5844 5844 5844 5844 5844 5844 5844 5844 5845 5845 5846 5846 5847 5848 5849 5849 5850 5851 5851 5852 5853 5854 5854 5855 5855 5855 5855 5855 5855 5855 5855 5855 5855 5854 5854
5839 5839 5840 5840 5840 5840 5841 5841 5841 5841 5841 5841 5841 5841 5841 5841 5841 5842 5842 5842 5843 5844 5845 5846 5846 5847 5848 5849 5849 5850 5851 5852 5852 5852 5853 5853 5853 5853 5853 5852 5852 5852 5851 5851
5835 5836 5836 5836 5836 5837 5837 5838 5838 5838 5837 5837 5838 5838 5838 5838 5838 5838 5838 5839 5839 5840 5841 5842 5843 5844 5845 5846 5847 5847 5848 5848 5849 5849 5850 5850 5850 5850 5850 5850 5849 5849 5849 5848
5831 5832 5832 5832 5833 5833 5834 5834 5834 5834 5834 5834 5834 5834 5834 5834 5834 5834 5835 5835 5836 5837 5838 5839 5840 5841 5842 5843 5844 5844 5845 5846 5846 5847 5847 5848 5848 5847 5847 5847 5846 5846 5845 5845
5827 5828 5828 5829 5829 5829 5829 5829 5830 5829 5829 5830 5830 5830 5831 5829 5829 5830 5830 5831 5832 5833 5834 5835 5836 5837 5839 5840 5840 5841 5842 5842 5843 5844 5844 5844 5844 5844 5844 5844 5843 5843 5842 5842
5823 5823 5824 5824 5824 5824 5825 5825 5825 5825 5825 5826 5826 5825 5826 5825 5825 5825 5826 5827 5828 5829 5830 5831 5832 5833 5834 5836 5836 5837 5838 5838 5839 5840 5840 5841 5841 5840 5840 5840 5840 5840 5839 5838
5818 5819 5819 5819 5819 5820 5820 5821 5821 5821 5821 5821 5821 5820 5821 5820 5820 5820 5821 5822 5823 5824 5825 5827 5828 5829 5830 5831 5832 5833 5834 5834 5835 5835 5836 5836 5836 5836 5836 5836 5836 5836 5835 5834
5814 5814 5814 5814 5815 5815 5815 5816 5817 5817 5817 5816 5815 5815 5816 5815 5815 5815 5816 5817 5818 5819 5821 5822 5823 5824 5826 5827 5828 5828 5829 5830 5830 5831 5831 5832 5832 5832 5832 5832 5832 5831 5831 5830
5809 5809 5809 5809 5809 5809 5809 5809 5810 5811 5810 5810 5811 5811 5811 5810 5810 5811 5811 5812 5813 5814 5816 5817 5818 5819 5820 5822 5823 5823 5824 5825 5826 5826 5827 5827 5827 5827 5827 5827 5827 5826 5826 5825
5803 5804 5803 5803 5803 5803 5804 5803 5804 5804 5804 5805 5806 5806 5806 5805 5806 5806 5807 5807 5808 5809 5810 5811 5812 5814 5815 5816 5817 5818 5819 5820 5820 5821 5821 5822 5822 5822 5822 5822 5822 5821 5821 5820
5796 5797 5798 5797 5797 5797 5798 5798 5798 5798 5799 5799 5800 5803 5801 5800 5801 5801 5801 5802 5802 5804 5805 5806 5807 5808 5809 5810 5811 5812 5813 5814 5815 5815 5816 5816 5817 5817 5817 5816 5816 5816 5815 5815
5789 5790 5790 5791 5791 5790 5791 5791 5792 5793 5793 5793 5794 5797 5795 5795 5795 5795 5796 5796 5797 5798 5799 5800 5801 5802 5803 5804 5805 5806 5807 5808 5809 5809 5810 5810 5811 5811 5811 5811 5811 5810 5810 5809
5782 5783 5783 5783 5785 5784 5784 5784 5785 5786 5786 5786 5787 5791 5788 5788 5789 5789 5790 5791 5791 5792 5793 5794 5795 5796 5797 5798 5799 5800 5801 5802 5803 5803 5804 5804 5804 5805 5805 5805 5805 5804 5804 5804
5775 5775 5777 5777 5777 5776 5776 5777 5778 5778 5779 5779 5780 5782 5782 5782 5782 5782 5783 5784 5785 5786 5787 5788 5789 5790 5790 5791 5792 5793 5794 5795 5796 5797 5797 5798 5798 5798 5798 5798 5798 5798 5798 5798
5767 5768 5768 5768 5768 5768 5769 5770 5770 5771 5772 5772 5774 5774 5775 5775 5775 5776 5777 5777 5778 5780 5780 5781 5782 5783 5783 5784 5785 5786 5787 5788 5789 5790 5791 5791 5791 5791 5792 5792 5792 5792 5791 5791
5759 5759 5760 5760 5760 5760 5760 5761 5762 5763 5764 5764 5765 5767 5768 5767 5768 5769 5769 5770 5771 5772 5773 5774 5775 5776 5776 5777 5778 5778 5780 5781 5782 5782 5783 5784 5784 5784 5784 5785 5784 5784 5784 5784
5751 5751 5752 5752 5752 5751 5752 5754 5755 5755 5756 5757 5757 5760 5759 5759 5760 5761 5762 5763 5764 5764 5765 5766 5767 5768 5769 5769 5770 5771 5772 5773 5774 5774 5775 5776 5776 5777 5777 5777 5777 5777 5777 5777
5743 5743 5743 5743 5744 5743 5747 5747 5747 5747 5748 5749 5749 5750 5751 5751 5752 5753 5753 5754 5755 5756 5757 5758 5759 5760 5761 5762 5762 5763 5764 5765 5766 5766 5767 5767 5768 5768 5769 5769 5769 5769 5768 5768
5734 5735 5735 5735 5735 5735 5738 5739 5739 5739 5740 5741 5741 5741 5742 5743 5743 5744 5745 5746 5747 5748 5749 5750 5751 5751 5752 5753 5754 5755 5755 5756 5757 5758 5758 5758 5759 5759 5759 5760 5760 5760 5759 5759
5726 5726 5727 5727 5727 5728 5731 5731 5731 5732 5732 5733 5733 5733 5734 5734 5735 5737 5737 5737 5738 5739 5740 5741 5742 5742 5743 5744 5745 5746 5746 5747 5748 5748 5749 5749 5749 5749 5750 5750 5750 5750 5750 5750
5718 5718 5719 5719 5718 5719 5722 5722 5723 5725 5725 5725 5725 5725 5725 5726 5727 5728 5728 5729 5729 5730 5731 5731 5732 5733 5734 5734 5735 5736 5737 5738 5738 5738 5739 5739 5739 5739 5739 5739 5740 5740 5740 5740
5710 5710 5711 5711 5711 5713 5713 5713 5715 5715 5715 5716 5716 5716 5717 5717 5717 5718 5719 5719 5720 5720 5721 5722 5722 5723 5724 5725 5726 5726 5727 5728 5728 5728 5729 5729 5729 5729 5729 5729 5729 5729 5729 5729
5702 5703 5703 5704 5705 5704 5704 5704 5705 5706 5706 5706 5707 5707 5708 5708 5708 5709 5710 5710 5710 5710 5711 5711 5712 5713 5714 5714 5715 5716 5717 5717 5717 5718 5718 5719 5719 5719 5719 5719 5719 5719 5719 5718
5694 5694 5694 5694 5695 5695 5695 5695 5696 5696 5696 5697 5697 5698 5698 5698 5699 5699 5699 5700 5700 5700 5700 5701 5702 5703 5704 5704 5705 5705 5706 5706 5706 5707 5707 5708 5708 5708 5708 5708 5708 5708 5708 5708
5686 5686 5685 5685 5686 5686 5687 5687 5687 5687 5687 5687 5687 5688 5688 5689 5689 5689 5689 5689 5690 5690 5690 5691 5691 5692 5693 5694 5694 5694 5694 5694 5695 5696 5697 5697 5698 5698 5698 5698 5698 5698 5698 5698
5678 5678 5677 5677 5678 5678 5678 5678 5678 5677 5678 5678 5678 5679 5679 5679 5679 5679 5680 5680 5679 5679 5680 5680 5681 5681 5682 5682 5683 5683 5684 5684 5684 5685 5686 5686 5687 5687 5687 5687 5687 5687 5687 5687